Content
SEND FEEDBACK

Daily
Averages
Monthly
Summary
United States of America

LOUDON, TENNESSEE


Home > North America > United States > Tennessee
Elevation: 82 feet     Latitude: 35 44N     Longitude: 084 21W

WEATHER
 
SELECT A DAY
Number of Records: 206,899;   Date Range: 1/1/95 - 12/18/14
 
SHARE

PRINT THIS DATA

[ ← Previous Day ]
WEATHER ALMANAC - AUGUST 7, 2014
[ Next Day → ]
[ °C ]   °F
Weather ElementAverageHighLow
Temperature75.3 °F87.1 °F (2:53 pm)50 °F (1:53 pm)
Dewpoint67.3 °F71.1 °F (10:53 pm)39.2 °F (1:53 pm)
Humidity78 %100 % (6:53 am)48 % (3:53 pm)
Barometer29.98 in30.03 in (7:53 am)29.95 in (4:53 pm)
Wind Speed4.2 mph10.4 mph (5:53 pm)
Weather ElementAverage
Visibility7.4 mi
Wind DirectionENE (64.6 °)

Weather ElementTotal
Precipitation---
Cooling Degree Days3.6 (Base 65)
Growing Degree Days18.6 (Base 50)
Averaged from 26 records on August 7, 2014
WEATHER CONDITIONS BREAKOUT
WIND DIRECTION BREAKOUT
WEATHER BY HOUR - AUGUST 7, 2014
[ °C ]   °F
Local TimeTemperatureDewpointHumidityBarometerVisibilityWind DirectionWind SpeedGust SpeedPrecipitationEventsConditions
12:53 AM73.9 °F71.1 °F91 %29.99 in6.0 miNorth (10°)3.5 mphOvercast
1:53 AM72.0 °F71.1 °F97 %29.97 in4.0 miCalmOvercast
2:53 AM72.0 °F71.1 °F97 %29.96 in4.0 miCalmMostly Cloudy
3:42 AM72.0 °F70.0 °F93 %29.99 in5.0 miNNE (30°)3.5 mphMostly Cloudy
3:53 AM72.0 °F70.0 °F93 %29.96 in5.0 miCalmOvercast
3:57 AM72.0 °F70.0 °F93 %29.99 in2.5 miNorth (350°)3.5 mphOvercast
4:53 AM71.1 °F69.1 °F93 %29.96 in6.0 miNorth (10°)4.6 mphOvercast
5:53 AM69.1 °F68.0 °F96 %29.97 in5.0 miNE (50°)3.5 mphScattered Clouds
6:53 AM68.0 °F68.0 °F100 %29.98 in4.0 miCalmMostly Cloudy
7:53 AM71.1 °F69.1 °F93 %30.01 in5.0 miNorth (10°)4.6 mphOvercast
8:53 AM73.0 °F69.1 °F87 %30.02 in6.0 miNE (40°)4.6 mphOvercast
9:53 AM75.0 °F69.1 °F82 %30.02 in8.0 miNorth (360°)5.8 mphOvercast
10:53 AM77.0 °F70.0 °F79 %30.03 in8.0 miVariable3.5 mphMostly Cloudy
11:53 AM81.0 °F69.1 °F67 %30.03 in9.0 miCalmMostly Cloudy
12:53 PM84.0 °F69.1 °F61 %30.01 in9.0 miNorth (360°)5.8 mphMostly Cloudy
1:53 PM50.0 °F39.2 °F66 %30.00 inNorth
2:53 PM87.1 °F66.0 °F49 %29.99 in10.0 miNNE (30°)5.8 mphMostly Cloudy
3:53 PM87.1 °F64.9 °F48 %29.97 in10.0 miEast (80°)9.2 mphMostly Cloudy
4:53 PM86.0 °F64.9 °F49 %29.96 in10.0 miEast (80°)9.2 mphMostly Cloudy
5:53 PM82.9 °F66.9 °F58 %29.95 in10.0 miNE (40°)10.4 mphMostly Cloudy
6:53 PM82.9 °F66.0 °F56 %29.95 in10.0 miNNE (30°)9.2 mphMostly Cloudy
7:53 PM80.1 °F66.9 °F64 %29.96 in10.0 miNE (40°)4.6 mphMostly Cloudy
8:53 PM77.0 °F68.0 °F74 %29.96 in10.0 miNE (50°)3.5 mphOvercast
9:53 PM73.0 °F68.0 °F84 %29.95 in10.0 miNE (50°)6.9 mphOvercast
10:53 PM75.9 °F66.9 °F74 %29.97 in10.0 miCalmOvercast
11:53 PM72.0 °F66.9 °F84 %29.97 in8.0 miENE (60°)3.5 mphOvercast
Hourly data recorded from KTYS, located miles away from Loudon, Tennessee







STORIES FROM OUR PARTNERS